Location: Buch
(49.7331°N, 12.1098°E)
Time: 01:10:46
(UTC+00:00)

Cosmos 1908 Rocket - Pass Details

Date: 12 May 2021
Orbit: 605 x 632 km, 82.5° (Epoch: 23 June)

Event Time Altitude Azimuth Distance (km) Brightness Sun altitude
Rises 21:52:06 0° 354° (N) 2,942 8.5 -19.9°
Reaches altitude 10° 21:54:25 10° 0° (N) 2,029 7.3 -20.0°
Maximum altitude 21:58:47 48° 75° (ENE) 834 4.1 -20.2°
Enters shadow 21:59:51 39° 116° (ESE) 948 4.1 -20.2°
